sat.trackr.live / text

‹ back to catalog

STARLINK-30095

NORAD 56289 · 2023-056D

PAYLOAD ACTIVE UNKNOWN

§ Identity

Operator
Country
US
Launch date
2023-04-19
Launch site
AFETR
Launch vehicle
Mass (kg)
RCS (m²)

Purposes: comms

External: N2YO · Heavens-Above · Gunter

§ Orbital elements

Epoch: 2026-05-25T04:06:01.561824Z

Period
94.27 min
Inclination
43.0028°
Eccentricity
0.0001194
Mean motion
15.27578611 rev/d
Perigee alt
482.2 km
Apogee alt
483.9 km
Semi-major
6,861.2 km
B*
4.8294e-5
RAAN
111.1076°
Arg perigee
259.0888°
Mean anomaly
100.9829°
Rev number
17,203

§ Raw data

STARLINK-300951 56289U 23056D   26145.17085141  .00001067  00000+0  48294-4 0  99952 56289  43.0028 111.1076 0001194 259.0888 100.9829 15.27578611172036

JSON: /api/v1/satellites/56289 · /tle

For live sub-satellite position, see the globe view (requires WebGL).

§ Visibility from observer

Set your observer location to see the next 7 days of passes ≥ 10°. The values pass through the URL so the page stays shareable.

No JS? Fill the form by hand. The geolocation button needs JavaScript.